Wiscasset, ME

5:17 PM EDT on April 28, 2017 (GMT -0400)
Wiscasset

Weather History for KIWI - March, 2014

Change the Weather History Date:

Monday, March 3, 2014

  Actual Average Record
Temperature  
Mean Temperature 14 °F -  
Max Temperature 23 °F 35 °F 52 °F (2002)
Min Temperature 3 °F 17 °F 1 °F (2001)
Degree Days  
Heating Degree Days 50    
Moisture  
Dew Point -7 °F    
Average Humidity 39    
Maximum Humidity 60    
Minimum Humidity 24    
Precipitation  
Precipitation 0.00 in - - ()
Sea Level Pressure  
Sea Level Pressure 30.14 in    
Wind  
Wind Speed 4 mph (NW)    
Max Wind Speed 10 mph    
Max Gust Speed 18 mph    
Visibility 10 miles    
Events      
Averages and records for this station are not official NWS values.
T = Trace of Precipitation, MM = Missing Value Source: NWS Daily Summary

Daily Weather History Graph

Daily Weather History Graph

Search for Another Location

Airport or City:

Trip Planner

Search our weather history database for the weather conditions in past years. The results will help you decide how hot, cold, wet, or windy it might be!

Date:

Astronomy

Mar. 03, 2014 Rise Set
Actual Time 6:12 AM EST 5:29 PM EST
Civil Twilight 5:43 AM EST 5:58 PM EST
Nautical Twilight 5:10 AM EST 6:32 PM EST
Astronomical Twilight 4:36 AM EST 7:05 PM EST
Moon 7:12 AM EST (3/3) 8:36 PM EST (3/3)
Length of Visible Light 12h 15m
Length of Day
11h 17m
Waxing Crescent, 8% of the Moon is Illuminated
Mar 3
Waxing Crescent
Mar 8
First Quarter
Mar 16
Full
Mar 23
Last Quarter
Mar 30
New

Hourly Weather History & Observations

Time (EST) Temp. Windchill Dew Point Humidity Pressure Visibility Wind Dir Wind Speed Gust Speed Precip Events Conditions
12:53 AM 17.1 °F 10.0 °F 1.0 °F 50% 30.05 in 10.0 mi Variable 4.6 mph - N/A   Overcast
1:53 AM 16.0 °F 8.8 °F -0.0 °F 49% 30.04 in 10.0 mi Variable 4.6 mph - N/A   Overcast
2:53 AM 15.1 °F 9.4 °F -4.0 °F 43% 30.04 in 10.0 mi Variable 3.5 mph - N/A   Mostly Cloudy
3:53 AM 12.9 °F 6.9 °F -4.0 °F 47% 30.05 in 10.0 mi Variable 3.5 mph - N/A   Mostly Cloudy
4:53 AM 10.9 °F 2.9 °F -5.1 °F 49% 30.08 in 10.0 mi Variable 4.6 mph - N/A   Clear
5:53 AM 10.0 °F - -5.1 °F 51% 30.08 in 10.0 mi Calm Calm - N/A   Clear
6:53 AM 10.0 °F - -5.1 °F 51% 30.10 in 10.0 mi Calm Calm - N/A   Clear
7:53 AM 12.9 °F 3.8 °F -6.0 °F 43% 30.12 in 10.0 mi NNW 5.8 mph - N/A   Clear
8:53 AM 16.0 °F 4.4 °F -7.1 °F 36% 30.12 in 10.0 mi NW 9.2 mph 17.3 mph N/A   Clear
9:53 AM 17.1 °F 10.0 °F -7.1 °F 34% 30.12 in 10.0 mi Variable 4.6 mph - N/A   Clear
10:53 AM 18.0 °F 9.8 °F -6.0 °F 35% 30.11 in 10.0 mi Variable 5.8 mph - N/A   Clear
11:53 AM 19.9 °F 12.1 °F -6.0 °F 32% 30.10 in 10.0 mi Variable 5.8 mph - N/A   Clear
12:53 PM 21.0 °F 13.4 °F -6.0 °F 30% 30.09 in 10.0 mi Variable 5.8 mph - N/A   Clear
1:53 PM 23.0 °F 12.4 °F -7.1 °F 27% 30.08 in 10.0 mi WNW 10.4 mph 18.4 mph N/A   Clear
2:53 PM 21.9 °F 12.5 °F -9.9 °F 24% 30.10 in 10.0 mi NNW 8.1 mph 17.3 mph N/A   Clear
3:53 PM 21.0 °F 13.4 °F -9.0 °F 26% 30.12 in 10.0 mi Variable 5.8 mph - N/A   Clear
4:53 PM 21.0 °F 14.6 °F -9.0 °F 26% 30.15 in 10.0 mi Variable 4.6 mph - N/A   Clear
5:53 PM 18.0 °F 11.1 °F -8.0 °F 31% 30.19 in 10.0 mi Variable 4.6 mph - N/A   Clear
6:53 PM 17.1 °F 10.0 °F -9.0 °F 31% 30.22 in 10.0 mi Variable 4.6 mph - N/A   Clear
7:53 PM 15.1 °F 9.4 °F -9.9 °F 32% 30.24 in 10.0 mi Variable 3.5 mph - N/A   Clear
8:53 PM 12.9 °F - -9.9 °F 35% 30.27 in 10.0 mi Calm Calm - N/A   Clear
9:53 PM 12.0 °F - -11.0 °F 35% 30.29 in 10.0 mi Calm Calm - N/A   Clear
10:53 PM 6.1 °F - -8.0 °F 53% 30.29 in 10.0 mi Calm Calm - N/A   Clear
11:53 PM 3.0 °F - -8.0 °F 60% 30.30 in 10.0 mi Calm Calm - N/A   Clear